• In Deutschland
  • Länderverzeichnis
  • Für 7 Tage
  • Wassertemperatur
  • Satellitenkarten
  • Wetterkarte
  • Widgets
  • user-avatar
    Anmelden

    Stündliche Wetter Newcastle

    Heute, 28 Juli, Freitag

    Zeit Temperatur Niederschläge Wind Luftdruck Luftfeuchtigkeit
    00:00 +11°C° 0 mm 4 m/S 765 mmHg 85%
    01:00 +10°C° 0 mm 5 m/S 765 mmHg 87%
    02:00 +9°C° 0 mm 5 m/S 764 mmHg 86%
    03:00 +8°C° 0 mm 4 m/S 764 mmHg 85%
    04:00 +8°C° 0 mm 4 m/S 764 mmHg 84%
    05:00 +8°C° 0 mm 4 m/S 764 mmHg 78%
    06:00 +7°C° 0 mm 4 m/S 763 mmHg 72%
    07:00 +7°C° 0 mm 4 m/S 763 mmHg 66%
    08:00 +10°C° 0,1 mm 5 m/S 763 mmHg 59%
    09:00 +14°C° 0,1 mm 5 m/S 763 mmHg 51%
    10:00 +16°C° 0,1 mm 5 m/S 763 mmHg 44%
    11:00 +19°C° 0 mm 6 m/S 762 mmHg 41%
    12:00 +20°C° 0 mm 6 m/S 762 mmHg 38%
    13:00 +21°C° 0 mm 6 m/S 762 mmHg 35%
    14:00 +20°C° 0 mm 6 m/S 762 mmHg 34%
    15:00 +20°C° 0 mm 5 m/S 762 mmHg 33%
    16:00 +20°C° 0 mm 4 m/S 762 mmHg 32%
    17:00 +17°C° 0 mm 5 m/S 762 mmHg 35%
    18:00 +14°C° 0 mm 5 m/S 763 mmHg 38%
    19:00 +12°C° 0 mm 5 m/S 764 mmHg 40%
    20:00 +10°C° 0 mm 5 m/S 764 mmHg 45%
    21:00 +9°C° 0 mm 5 m/S 765 mmHg 49%
    22:00 +9°C° 0 mm 5 m/S 765 mmHg 54%
    23:00 +8°C° 0 mm 4 m/S 765 mmHg 58%

    Morgen, 29 Juli, Samstag

    Zeit Temperatur Niederschläge Wind Luftdruck Luftfeuchtigkeit
    00:00 +7°C° 0 mm 4 m/S 765 mmHg 63%
    01:00 +6°C° 0 mm 4 m/S 766 mmHg 67%
    02:00 +6°C° 0 mm 4 m/S 765 mmHg 69%
    03:00 +6°C° 0 mm 4 m/S 765 mmHg 71%
    04:00 +5°C° 0 mm 3 m/S 765 mmHg 73%
    05:00 +5°C° 0 mm 3 m/S 765 mmHg 74%
    06:00 +4°C° 0 mm 3 m/S 766 mmHg 74%
    07:00 +4°C° 0 mm 3 m/S 766 mmHg 75%
    08:00 +8°C° 0 mm 3 m/S 766 mmHg 65%
    09:00 +10°C° 0 mm 3 m/S 766 mmHg 55%
    10:00 +13°C° 0 mm 3 m/S 766 mmHg 46%
    11:00 +16°C° 0 mm 3 m/S 765 mmHg 41%
    12:00 +18°C° 0 mm 3 m/S 764 mmHg 36%
    13:00 +20°C° 0 mm 3 m/S 763 mmHg 30%
    14:00 +20°C° 0 mm 3 m/S 763 mmHg 33%
    15:00 +19°C° 0 mm 3 m/S 762 mmHg 35%
    16:00 +19°C° 0 mm 3 m/S 762 mmHg 38%
    17:00 +17°C° 0 mm 3 m/S 762 mmHg 41%
    18:00 +14°C° 0 mm 4 m/S 763 mmHg 44%
    19:00 +12°C° 0 mm 4 m/S 763 mmHg 47%
    20:00 +12°C° 0 mm 4 m/S 763 mmHg 48%
    21:00 +11°C° 0 mm 4 m/S 764 mmHg 49%
    22:00 +11°C° 0 mm 4 m/S 764 mmHg 50%
    23:00 +11°C° 0 mm 4 m/S 764 mmHg 49%

    übermorgen, 30 Juli, Sonntag

    Zeit Temperatur Niederschläge Wind Luftdruck Luftfeuchtigkeit
    00:00 +11°C° 0 mm 4 m/S 763 mmHg 48%
    01:00 +11°C° 0 mm 4 m/S 763 mmHg 47%
    02:00 +12°C° 0 mm 4 m/S 763 mmHg 45%
    03:00 +12°C° 0 mm 4 m/S 762 mmHg 42%
    04:00 +13°C° 0 mm 4 m/S 762 mmHg 40%
    05:00 +13°C° 0 mm 4 m/S 762 mmHg 40%
    06:00 +13°C° 0 mm 4 m/S 762 mmHg 39%
    07:00 +14°C° 0 mm 4 m/S 763 mmHg 39%
    08:00 +15°C° 0 mm 4 m/S 763 mmHg 40%
    09:00 +17°C° 0 mm 4 m/S 763 mmHg 40%
    10:00 +18°C° 0 mm 4 m/S 763 mmHg 41%
    11:00 +20°C° 0 mm 4 m/S 762 mmHg 39%
    12:00 +21°C° 0 mm 4 m/S 761 mmHg 38%
    13:00 +23°C° 0 mm 4 m/S 761 mmHg 36%
    14:00 +22°C° 0 mm 4 m/S 761 mmHg 38%
    15:00 +21°C° 0 mm 4 m/S 761 mmHg 40%
    16:00 +21°C° 0 mm 4 m/S 761 mmHg 43%
    17:00 +20°C° 0 mm 4 m/S 762 mmHg 44%
    18:00 +19°C° 0 mm 4 m/S 762 mmHg 46%
    19:00 +18°C° 0 mm 4 m/S 763 mmHg 48%
    20:00 +17°C° 0 mm 3 m/S 763 mmHg 49%
    21:00 +17°C° 0 mm 3 m/S 763 mmHg 50%
    22:00 +17°C° 0 mm 2 m/S 763 mmHg 51%
    23:00 +16°C° 0 mm 2 m/S 763 mmHg 54%

    31 Juli, Montag

    Zeit Temperatur Niederschläge Wind Luftdruck Luftfeuchtigkeit
    00:00 +16°C° 0 mm 2 m/S 763 mmHg 57%
    01:00 +15°C° 0 mm 2 m/S 762 mmHg 60%
    02:00 +15°C° 0 mm 1 m/S 762 mmHg 60%
    03:00 +15°C° 0 mm 1 m/S 762 mmHg 60%
    04:00 +14°C° 0 mm 0 m/S 762 mmHg 60%
    05:00 +14°C° 0 mm 1 m/S 762 mmHg 61%
    06:00 +14°C° 0 mm 1 m/S 762 mmHg 61%
    07:00 +14°C° 0 mm 1 m/S 762 mmHg 62%
    08:00 +16°C° 0 mm 1 m/S 762 mmHg 58%
    09:00 +18°C° 0 mm 1 m/S 761 mmHg 55%
    10:00 +20°C° 0 mm 1 m/S 761 mmHg 51%
    11:00 +21°C° 0 mm 1 m/S 760 mmHg 48%
    12:00 +22°C° 0 mm 1 m/S 760 mmHg 44%
    13:00 +23°C° 0 mm 2 m/S 759 mmHg 41%
    14:00 +23°C° 0 mm 2 m/S 759 mmHg 44%
    15:00 +21°C° 0 mm 2 m/S 759 mmHg 48%
    16:00 +21°C° 0 mm 2 m/S 758 mmHg 52%
    17:00 +19°C° 0,5 mm 4 m/S 759 mmHg 63%
    18:00 +15°C° 0,5 mm 6 m/S 760 mmHg 75%
    19:00 +12°C° 0,5 mm 7 m/S 761 mmHg 86%
    20:00 +11°C° 1,2 mm 7 m/S 761 mmHg 89%
    21:00 +10°C° 1,2 mm 6 m/S 762 mmHg 91%
    22:00 +10°C° 1,2 mm 6 m/S 762 mmHg 94%
    23:00 +9°C° 0,4 mm 6 m/S 762 mmHg 94%

    1 August, Dienstag

    Zeit Temperatur Niederschläge Wind Luftdruck Luftfeuchtigkeit
    00:00 +9°C° 0,4 mm 6 m/S 763 mmHg 94%
    01:00 +9°C° 0,4 mm 7 m/S 763 mmHg 94%
    02:00 +9°C° 0,2 mm 6 m/S 763 mmHg 93%
    03:00 +8°C° 0,2 mm 6 m/S 763 mmHg 93%
    04:00 +8°C° 0,2 mm 6 m/S 764 mmHg 93%
    05:00 +7°C° 0 mm 6 m/S 764 mmHg 92%
    06:00 +7°C° 0 mm 5 m/S 765 mmHg 92%
    07:00 +6°C° 0 mm 5 m/S 766 mmHg 91%
    08:00 +8°C° 0 mm 5 m/S 766 mmHg 82%
    09:00 +10°C° 0 mm 5 m/S 766 mmHg 74%
    10:00 +13°C° 0 mm 5 m/S 767 mmHg 65%
    11:00 +14°C° 0 mm 5 m/S 766 mmHg 58%
    12:00 +15°C° 0 mm 4 m/S 765 mmHg 50%
    13:00 +18°C° 0 mm 4 m/S 765 mmHg 42%
    14:00 +17°C° 0 mm 4 m/S 765 mmHg 44%
    15:00 +17°C° 0 mm 4 m/S 765 mmHg 45%
    16:00 +17°C° 0 mm 4 m/S 765 mmHg 47%
    17:00 +14°C° 0 mm 4 m/S 766 mmHg 54%
    18:00 +12°C° 0 mm 4 m/S 767 mmHg 61%
    19:00 +10°C° 0 mm 4 m/S 767 mmHg 68%
    20:00 +10°C° 0 mm 4 m/S 768 mmHg 70%
    21:00 +8°C° 0 mm 4 m/S 768 mmHg 72%
    22:00 +8°C° 0 mm 4 m/S 768 mmHg 74%
    23:00 +8°C° 0 mm 4 m/S 768 mmHg 76%

    2 August, Mittwoch

    Zeit Temperatur Niederschläge Wind Luftdruck Luftfeuchtigkeit
    00:00 +7°C° 0 mm 5 m/S 768 mmHg 78%
    01:00 +7°C° 0 mm 5 m/S 768 mmHg 80%
    02:00 +6°C° 0,1 mm 5 m/S 768 mmHg 80%
    03:00 +6°C° 0,1 mm 5 m/S 768 mmHg 81%
    04:00 +6°C° 0,1 mm 5 m/S 768 mmHg 81%
    05:00 +6°C° 0,1 mm 5 m/S 768 mmHg 81%
    06:00 +6°C° 0,1 mm 5 m/S 769 mmHg 82%
    07:00 +6°C° 0,1 mm 5 m/S 769 mmHg 82%
    08:00 +8°C° 0,1 mm 4 m/S 769 mmHg 77%
    09:00 +11°C° 0,1 mm 4 m/S 769 mmHg 72%
    10:00 +13°C° 0,1 mm 4 m/S 769 mmHg 68%
    11:00 +14°C° 0,1 mm 4 m/S 768 mmHg 68%
    12:00 +14°C° 0,1 mm 4 m/S 768 mmHg 69%
    13:00 +15°C° 0,1 mm 4 m/S 767 mmHg 70%
    14:00 +15°C° 0,1 mm 4 m/S 767 mmHg 68%
    15:00 +15°C° 0,1 mm 4 m/S 767 mmHg 67%
    16:00 +15°C° 0,1 mm 4 m/S 767 mmHg 65%
    17:00 +14°C° 0 mm 3 m/S 767 mmHg 72%
    18:00 +12°C° 0 mm 3 m/S 768 mmHg 79%
    19:00 +11°C° 0 mm 3 m/S 768 mmHg 86%
    20:00 +10°C° 0 mm 2 m/S 768 mmHg 86%
    21:00 +10°C° 0 mm 2 m/S 768 mmHg 86%
    22:00 +10°C° 0 mm 2 m/S 768 mmHg 87%
    23:00 +9°C° 0,1 mm 2 m/S 768 mmHg 89%
    Mehr zeigen